Location: ????? ???????
(25.7275°N, 32.5929°E)
Time: 11:17:11
(UTC+00:00)

SL-8 Rocket - Pass Details

Date: 02 March 2021
Orbit: 957 x 991 km, 82.9° (Epoch: 15 April)

Event Time Altitude Azimuth Distance (km) Brightness Sun altitude
Rises 17:34:59 0° 189° (S) 3,678 7.1 -24.0°
Reaches altitude 10° 17:37:31 10° 191° (S) 2,729 6.4 -24.5°
Maximum altitude 17:43:45 72° 275° (W) 1,023 4.2 -25.9°
Drops below altitude 10° 17:49:58 10° 360° (N) 2,717 6.4 -27.3°
Sets 17:52:29 0° 2° (N) 3,661 7.1 -27.9°
